COSMOS 1275 DEB, 42182

Orbit data source: Space-Track

COSMOS 1275 DEB, 42182 is space debris in LEO originally from a launch on Thu, 04 Jun 1981 UTC launched from the Plesetsk Missile And Space Complex (PKMTR). Debris objects in space refer to the collection of defunct objects orbiting the Earth. Examples of debris include non-operational satellites, rocket bodies, and fragments generated from explosions, collisions, or faulty payload assembly.

Loading next visibility...
Identifier
42182, 1981-053SW
Orbit
LEO
Country
Flag of CISCIS
Related business
Manufacturer
Unknown
Mission
Spacecraft
Bus & Motor
Unknown
Mass
Unknown
Launch date (UTC)
1981-06-04 (44 years ago)
Launch vehicle
Unknown
Launch site
Plesetsk Missile And Space Complex (PKMTR)
Object type
Payload
Rocket body
Debris
Shape & HBR
Unknown shape, 0.1 m
Radar Cross Section
Small (<0.1 m²)

Expand to show TLE details & history
Last TLE update: 12 hours ago

TLE from 12 hours ago
0 COSMOS 1275 DEB
1 42182U 81053SW  25293.79146669  .00001157  00000-0  13863-2 0  9990
2 42182  82.9520 131.4282 0128183 178.2040 199.4787 13.62785968578630
Epoch: 2025-10-20T18:59Z
TLE epoch observation values (Epoch: 2025-10-20T18:59:42.722Z)
Latitude
17.05242°
Longitude
179.17374°
Altitude
1,117.481 km
Speed
7.251 km/s
True Right ascension
08h 54m 21s
True Declination
16° 57' 39"
Sunlit
Object was in daylight at epoch
Visualization orbit readout
Latitude
Unknown
Longitude
Unknown
Altitude
Unknown
Speed
Unknown
Apparent Right ascension
Unknown
Apparent Declination
Unknown
Sunlit
N/A
Visualization observer readout
Local Sidereal Time
02:01:11
Azimuth
Unknown
Elevation
Unknown
Doppler factor
Unknown
Orbital elements
Apogee altitude
1,117.616 km
Perigee altitude
927.882 km
Semi-major axis
7,400.886 km
Eccentricity
0.01282
Inclination
82.952°
RAAN
131.4282°
Arg. of periapsis
178.204°
True anomaly
198.99619°
Mean anomaly
199.4787°
Eccentric anomaly
199.23672°
Mean motion
3.40893 °/min
Orbital period
105.61 mins
BSTAR
0.0013863
Loading maneuver chart data...
Computing Atmospheric mass density...
Loading historical data...
Loading historical data...
Loading historical data...
Loading historical data...
Loading historical data...
Loading historical data...
Loading historical data...

Documentation

Showing up to 5 results
|